Location: Poprad
(49.0500°N, 20.3000°E)
Time: 11:32:52
(UTC+01:00)

ISS - Pass Details

Date: 27 January 2021
Orbit: 417 x 422 km, 51.6° (Epoch: 07 March)

Event Time Altitude Azimuth Distance (km) Brightness Sun altitude
Rises 17:59:59 0° 273° (W) 2,371 1.7 -15.0°
Reaches altitude 10° 18:02:07 10° 278° (W) 1,508 0.2 -15.4°
Maximum altitude 18:05:27 53° 357° (N) 527 -3.4 -15.9°
Enters shadow 18:06:28 36° 52° (NE) 685 -3.2 -16.1°
